EW5684 Weather Reports


time (UTC)temp
F
wind
direction
speed
knots
gust
knots
rain 1hr
in
rain 24hr
in
rain mn
in
humidity
%
barometer
mb
20260506012423 55 0 0.0 0.0 0.01 0.33 0.02 60 1010.9
20260506011923 55 0 0.0 0.0 0.01 0.33 0.02 59 1010.9
20260506011422 55 0 0.0 0.0 0.02 0.33 0.02 59 1010.9
20260506010922 55 0 0.0 0.0 0.02 0.33 0.02 59 1011.0
20260506010423 55 0 0.0 0.0 0.02 0.33 0.02 59 1011.0
20260506005922 55 0 0.0 0.0 0.02 0.31 0.02 59 1011.2
20260506005423 55 0 0.0 0.0 0.02 0.31 0.02 59 1011.1
20260506004924 55 0 0.0 0.0 0.02 0.31 0.02 59 1011.5
20260506004639 55 0 0.0 0.0 0.02 0.31 0.02 59 1011.6
20260506003923 55 0 0.0 0.0 0.02 0.31 0.02 59 1011.7
20260506003423 55 0 0.0 0.0 0.02 0.31 0.02 59 1011.8
20260506003404 55 0 0.0 0.0 0.01 0.32 0.01 59 1011.9
20260506002422 55 0 0.0 0.0 0.01 0.32 0.01 59 1012.0
20260506001923 55 0 0.0 0.0 0.01 0.32 0.01 59 1012.1
20260506001423 55 0 0.0 0.0 0.00 0.32 0.00 59 1012.3
20260506000922 55 0 0.0 0.0 0.00 0.34 0.00 59 1012.4
20260506000423 55 0 0.0 0.0 0.00 0.35 0.00 59 1012.5
20260505235922 56 0 0.0 0.0 0.00 0.35 0.00 59 1012.4
20260505235422 56 0 0.0 0.0 0.00 0.36 0.00 59 1012.4
20260505234921 56 0 0.0 0.0 0.00 0.37 0.00 59 1012.5
20260505234422 56 0 0.0 0.0 0.00 0.37 0.00 58 1012.5
20260505234141 56 0 0.0 0.0 0.00 0.37 0.00 58 1012.5
20260505233643 56 0 0.0 0.0 0.00 0.37 0.00 58 1012.6
20260505232922 56 0 0.0 0.0 0.00 0.37 0.00 58 1012.7
20260505232422 56 0 0.0 0.0 0.00 0.37 0.00 58 1012.7
20260505231921 56 0 0.0 0.0 0.00 0.37 0.00 58 1012.6
20260505231418 56 0 0.0 0.0 0.00 0.37 0.00 58 1012.7
20260505231137 56 0 0.0 0.0 0.00 0.37 0.00 58 1012.7
20260505230636 56 0 0.0 0.0 0.00 0.37 0.00 58 1012.7
20260505225916 56 0 0.0 0.0 0.00 0.37 0.00 58 1012.7
20260505225405 56 0 0.0 0.0 0.00 0.37 0.00 58 1012.7
20260505224906 56 0 0.0 0.0 0.00 0.37 0.00 58 1012.7
20260505224406 56 0 0.0 0.0 0.00 0.37 0.00 58 1012.9
20260505223905 56 0 0.0 0.0 0.00 0.37 0.00 58 1012.9
20260505223406 56 0 0.0 0.0 0.00 0.37 0.00 58 1013.0
20260505222906 56 0 0.0 0.9 0.00 0.37 0.00 58 1013.0
20260505222629 56 0 0.0 0.9 0.00 0.37 0.00 58 1013.0
20260505221906 56 0 0.0 0.9 0.00 0.37 0.00 58 1013.0
20260505221406 56 0 0.0 2.6 0.00 0.37 0.00 57 1013.1
20260505220905 56 0 0.0 2.6 0.00 0.37 0.00 57 1012.9
20260505220405 56 0 0.0 0.0 0.00 0.37 0.00 57 1012.8
20260505220128 56 0 0.0 0.0 0.00 0.37 0.37 57 1012.9
20260505215405 56 0 0.0 0.0 0.00 0.37 0.37 57 1013.1
20260505214906 56 0 0.0 0.0 0.00 0.37 0.37 57 1013.0
20260505214626 56 0 0.0 0.0 0.00 0.37 0.37 57 1012.9
20260505213905 56 0 0.0 0.0 0.00 0.37 0.37 57 1013.0
20260505213406 56 0 0.0 0.0 0.00 0.37 0.37 57 1013.2
20260505212905 56 0 0.0 0.0 0.00 0.37 0.37 57 1013.3
20260505212405 56 0 0.0 0.0 0.00 0.37 0.37 58 1013.5
20260505211905 56 0 0.0 0.0 0.00 0.37 0.37 58 1013.5
20260505211405 56 0 0.0 0.0 0.00 0.37 0.37 58 1013.5
20260505210905 56 0 0.0 0.0 0.00 0.37 0.37 58 1013.5
20260505210405 55 0 0.0 0.0 0.00 0.37 0.37 58 1013.4
20260505210128 55 0 0.0 0.0 0.00 0.37 0.37 58 1013.3
20260505205406 55 0 0.0 0.0 0.00 0.37 0.37 58 1013.4
20260505204906 55 0 0.0 0.0 0.00 0.37 0.37 58 1013.4
20260505204405 55 0 0.0 0.0 0.00 0.37 0.37 58 1013.5
20260505203907 55 0 0.0 0.0 0.00 0.37 0.37 58 1013.5
20260505203635 55 0 0.0 0.0 0.00 0.37 0.37 58 1013.4
20260505202906 55 0 0.0 0.0 0.00 0.37 0.37 58 1013.5
20260505202405 55 0 0.0 0.0 0.00 0.37 0.37 58 1013.5
20260505201904 56 0 0.0 0.9 0.00 0.37 0.37 58 1013.5
20260505201623 56 0 0.0 0.9 0.00 0.37 0.37 58 1013.4
20260505200904 56 0 0.0 1.7 0.00 0.37 0.37 58 1013.4
20260505200404 56 0 0.9 1.7 0.00 0.37 0.37 58 1013.4
20260505195905 56 0 0.0 0.9 0.00 0.37 0.37 58 1013.3
20260505195404 56 0 0.0 0.9 0.00 0.37 0.37 58 1013.3
20260505194905 56 0 0.0 2.6 0.00 0.37 0.37 58 1013.4
20260505194402 56 0 0.9 2.6 0.00 0.37 0.37 58 1013.3
20260505193904 56 0 0.9 2.6 0.00 0.37 0.37 58 1013.5
20260505193405 56 0 0.0 0.0 0.00 0.37 0.37 58 1013.4
20260505193129 56 0 0.0 1.7 0.00 0.37 0.37 57 1013.4
20260505192405 56 0 0.9 1.7 0.00 0.37 0.37 57 1013.3
20260505191904 56 0 0.0 0.9 0.00 0.37 0.37 57 1013.3
20260505191404 56 0 0.0 0.9 0.00 0.37 0.37 57 1013.2
20260505190905 56 0 0.0 0.9 0.00 0.37 0.37 57 1013.1
20260505190405 56 0 0.9 0.9 0.00 0.37 0.37 57 1013.1
20260505185904 56 0 0.0 0.0 0.00 0.37 0.37 57 1013.1
20260505185404 56 0 0.0 0.0 0.00 0.37 0.37 57 1013.1
20260505184905 56 0 0.0 0.0 0.00 0.37 0.37 57 1013.0
20260505184404 57 0 0.0 0.0 0.00 0.37 0.37 57 1013.0
20260505183904 57 0 0.0 0.0 0.00 0.37 0.37 57 1013.1
20260505183625 57 0 0.0 0.0 0.00 0.37 0.37 57 1013.1
20260505182904 57 0 0.0 1.7 0.00 0.37 0.37 57 1013.1
20260505182405 57 0 0.0 1.7 0.00 0.37 0.37 57 1013.0
20260505181905 57 0 0.0 0.9 0.00 0.37 0.37 56 1013.0
20260505181404 57 0 0.0 0.0 0.00 0.37 0.37 56 1013.0
20260505180904 57 0 0.0 0.0 0.00 0.37 0.37 56 1013.0
20260505180405 57 0 0.0 0.0 0.00 0.38 0.37 56 1013.0
20260505175904 58 0 0.0 0.9 0.00 0.38 0.37 56 1013.1
20260505175404 58 0 0.0 0.9 0.00 0.38 0.37 56 1013.0
20260505174905 58 0 0.0 0.9 0.00 0.38 0.37 56 1013.0
20260505174404 58 0 0.0 0.9 0.00 0.38 0.37 56 1013.1
20260505173904 58 0 0.0 0.9 0.00 0.39 0.37 56 1013.1
20260505173405 58 0 0.0 1.7 0.00 0.39 0.37 56 1013.1
20260505172904 58 0 0.9 1.7 0.00 0.39 0.37 56 1013.1
20260505172405 58 0 0.0 2.6 0.00 0.39 0.37 56 1013.0
20260505171905 58 0 0.0 2.6 0.00 0.39 0.37 56 1013.1
20260505171404 58 0 0.9 2.6 0.00 0.40 0.37 55 1013.1
20260505171124 58 0 0.9 2.6 0.00 0.40 0.37 55 1013.1
20260505170404 58 0 0.9 2.6 0.00 0.40 0.37 55 1013.2
20260505170134 58 0 1.7 2.6 0.00 0.40 0.37 54 1013.1
20260505165404 58 0 1.7 2.6 0.00 0.40 0.37 54 1013.2
20260505164904 58 0 1.7 3.5 0.00 0.40 0.37 54 1013.2
20260505164405 58 0 2.6 3.5 0.00 0.40 0.37 55 1013.3
20260505163904 58 0 1.7 4.3 0.00 0.40 0.37 54 1013.2
20260505163405 59 0 3.5 4.3 0.00 0.40 0.37 54 1013.2
20260505162905 59 0 1.7 3.5 0.00 0.40 0.37 54 1013.3
20260505162404 59 0 1.7 4.3 0.00 0.40 0.37 54 1013.4
20260505161905 59 0 2.6 5.2 0.00 0.40 0.37 54 1013.4
20260505161405 59 0 0.9 5.2 0.00 0.40 0.37 53 1013.3
20260505160905 59 0 3.5 4.3 0.00 0.40 0.37 53 1013.4
20260505160404 59 0 2.6 4.3 0.00 0.40 0.37 53 1013.2
20260505152905 59 0 1.7 5.2 0.00 0.40 0.37 52 1013.4
20260505152404 60 0 1.7 5.2 0.00 0.40 0.37 53 1013.3
20260505152126 60 0 0.9 3.5 0.00 0.40 0.37 53 1013.3
20260505151404 59 0 0.0 3.5 0.00 0.40 0.37 53 1013.3
20260505150905 59 0 0.9 3.5 0.00 0.40 0.37 52 1013.3
20260505150404 59 0 3.5 3.5 0.00 0.40 0.37 53 1013.4
20260505140404 57 0 0.9 2.6 0.00 0.40 0.37 57 1013.8
20260505124904 55 0 0.9 3.5 0.00 0.40 0.37 65 1014.3
20260505124404 54 0 1.7 3.5 0.00 0.40 0.37 65 1014.2
20260505123904 54 0 3.5 3.5 0.00 0.40 0.37 65 1014.4
20260505123404 54 0 1.7 3.5 0.00 0.40 0.37 65 1014.4
20260505122905 54 0 3.5 3.5 0.00 0.40 0.37 65 1014.4
20260505122405 54 0 1.7 3.5 0.00 0.40 0.37 65 1014.5
20260505121905 54 0 0.9 3.5 0.00 0.40 0.37 65 1014.5
20260505121623 54 0 0.0 4.3 0.00 0.40 0.37 65 1014.5
20260505121127 54 0 0.9 4.3 0.00 0.40 0.37 65 1014.4
20260505120632 54 0 1.7 3.5 0.00 0.40 0.37 66 1014.5
20260505115906 54 0 0.9 5.2 0.00 0.40 0.37 66 1014.5
20260505115406 53 0 1.7 5.2 0.00 0.40 0.37 65 1014.6
20260505114906 54 0 0.9 3.5 0.00 0.40 0.37 66 1014.6
20260505114406 54 0 2.6 3.5 0.00 0.40 0.37 65 1014.6
20260505113906 54 0 0.9 3.5 0.00 0.40 0.37 66 1014.6
20260505113350 54 0 1.7 3.5 0.00 0.40 0.37 66 1014.7
20260505112833 54 0 0.9 3.5 0.00 0.40 0.37 66 1014.6
20260505112307 54 0 0.9 3.5 0.00 0.40 0.37 66 1014.7
20260505111805 54 0 1.7 4.3 0.00 0.40 0.37 66 1014.7
20260505111305 53 0 1.7 4.3 0.00 0.40 0.37 66 1014.7
20260505110805 53 0 1.7 2.6 0.00 0.40 0.37 66 1014.8
20260505110305 53 0 1.7 3.5 0.00 0.40 0.37 65 1014.9
20260505101804 53 0 2.6 4.3 0.02 0.40 0.37 65 1015.1
20260505101304 53 0 2.6 4.3 0.02 0.40 0.37 65 1015.1
20260505100804 52 0 2.6 5.2 0.02 0.40 0.37 65 1015.1
20260505100304 52 0 4.3 5.2 0.02 0.40 0.37 64 1015.0
20260505095804 52 0 4.3 5.2 0.03 0.38 0.37 64 1015.1
20260505095305 52 0 2.6 5.2 0.03 0.38 0.37 63 1015.1
20260505095023 52 0 5.2 5.2 0.03 0.38 0.36 62 1015.0
20260505094304 52 0 4.3 5.2 0.02 0.38 0.36 62 1015.0
20260505093803 52 0 3.5 6.1 0.03 0.38 0.36 61 1014.9
20260505093304 52 0 4.3 6.1 0.03 0.38 0.36 61 1015.0
20260505092803 52 0 3.5 5.2 0.03 0.38 0.36 61 1015.0
20260505092523 52 0 2.6 5.2 0.02 0.38 0.35 60 1014.9
20260505091803 52 0 4.3 5.2 0.03 0.38 0.35 60 1015.0
20260505091302 52 0 4.3 5.2 0.03 0.38 0.35 60 1014.9
20260505090803 52 0 3.5 5.2 0.03 0.38 0.35 60 1014.9
20260505090303 52 0 1.7 2.6 0.02 0.38 0.35 60 1015.0
20260505085803 53 0 1.7 2.6 0.02 0.35 0.34 60 1014.9
20260505085304 52 0 0.9 1.7 0.02 0.35 0.34 60 1014.8
20260505084802 52 0 0.0 1.7 0.02 0.35 0.34 59 1014.8
20260505084302 52 0 0.9 1.7 0.02 0.35 0.34 60 1014.8
20260505083802 52 0 0.0 3.5 0.01 0.35 0.33 59 1014.8
20260505083302 52 0 0.9 3.5 0.01 0.35 0.33 59 1014.8
20260505083023 52 0 1.7 2.6 0.01 0.35 0.33 59 1014.8
20260505082304 52 0 0.0 2.6 0.01 0.35 0.33 59 1014.9
20260505081801 52 0 0.0 2.6 0.00 0.35 0.32 59 1014.8
20260505081301 52 0 1.7 2.6 0.00 0.35 0.32 59 1014.8
20260505080802 52 0 0.9 2.6 0.00 0.35 0.32 59 1014.7
20260505080301 52 0 0.9 1.7 0.00 0.35 0.32 59 1014.5
20260505075801 52 0 0.0 2.6 0.00 0.35 0.32 59 1014.6
20260505075304 52 0 0.9 2.6 0.00 0.35 0.32 59 1014.6
20260505074801 52 0 0.9 2.6 0.00 0.35 0.32 59 1014.7
20260505074300 52 0 1.7 4.3 0.00 0.35 0.32 59 1014.6
20260505073801 52 0 2.6 4.3 0.00 0.35 0.32 59 1014.6
20260505073509 52 0 3.5 4.3 0.00 0.35 0.32 61 1014.6
20260505073459 52 0 2.6 4.3 0.00 0.35 0.32 60 1014.6
20260505072301 52 0 2.6 3.5 0.00 0.35 0.32 61 1014.5
20260505071800 52 0 2.6 3.5 0.00 0.35 0.32 61 1014.5
20260505071300 52 0 1.7 1.7 0.00 0.35 0.32 62 1014.6
20260505070800 52 0 0.0 1.7 0.00 0.35 0.32 62 1014.6
20260505070300 52 0 0.0 3.5 0.00 0.35 0.32 62 1014.5
20260505065800 52 0 0.9 3.5 0.00 0.35 0.32 63 1014.4
20260505065259 52 0 1.7 2.6 0.00 0.35 0.32 64 1014.3
20260505065017 52 0 0.0 2.6 0.00 0.35 0.32 64 1014.4
20260505064300 52 0 1.7 2.6 0.00 0.35 0.32 64 1014.3
20260505064025 52 0 1.7 1.7 0.00 0.35 0.32 64 1014.2
20260505063259 52 0 0.0 2.6 0.00 0.35 0.32 65 1014.2
20260505062800 52 0 0.9 2.6 0.00 0.35 0.32 65 1014.2
20260505062517 52 0 1.7 3.5 0.00 0.35 0.32 65 1014.2
20260505061758 51 0 1.7 3.5 0.00 0.35 0.32 65 1014.1
20260505061259 51 0 1.7 4.3 0.00 0.35 0.32 65 1014.0
20260505060759 51 0 1.7 6.1 0.00 0.35 0.32 65 1014.0
20260505060259 51 0 4.3 6.1 0.00 0.35 0.32 65 1013.9
20260505060020 51 0 3.5 8.7 0.00 0.35 0.32 65 1013.9
20260505055258 51 0 5.2 8.7 0.00 0.35 0.32 65 1013.9
20260505054758 51 0 3.5 5.2 0.00 0.35 0.32 65 1013.8
20260505054258 51 0 3.5 5.2 0.01 0.35 0.32 65 1013.9
20260505053758 51 0 2.6 4.3 0.01 0.35 0.32 65 1014.0
20260505053258 51 0 1.7 5.2 0.02 0.35 0.32 65 1013.9
20260505052757 51 0 1.7 5.2 0.02 0.35 0.32 65 1013.9
20260505052256 51 0 2.6 5.2 0.04 0.35 0.32 65 1013.9
20260505051756 51 0 0.9 5.2 0.05 0.35 0.32 66 1013.9
20260505051256 51 0 2.6 5.2 0.07 0.35 0.32 66 1014.0
20260505051018 52 0 1.7 3.5 0.08 0.35 0.32 66 1014.0
20260505050255 52 0 1.7 3.5 0.09 0.35 0.32 66 1014.0
20260505041754 52 0 0.9 2.6 0.18 0.25 0.27 65 1014.5
20260505041254 53 0 1.7 2.6 0.17 0.25 0.25 65 1014.6
20260505041010 53 0 1.7 2.6 0.17 0.25 0.24 65 1014.5
20260505040254 53 0 0.0 1.7 0.16 0.25 0.23 64 1014.6
20260505035754 53 0 0.0 3.5 0.15 0.10 0.21 64 1014.7
20260505035255 53 0 1.7 3.5 0.14 0.10 0.20 64 1014.8
20260505034754 53 0 1.7 2.6 0.13 0.10 0.19 64 1014.9
20260505034254 53 0 0.9 2.6 0.11 0.10 0.17 63 1015.0
20260505033754 53 0 0.9 2.6 0.09 0.10 0.16 63 1015.0
20260505033254 53 0 0.9 2.6 0.08 0.10 0.13 63 1015.0
20260505033237 53 0 0.9 2.6 0.07 0.10 0.13 62 1014.9
20260505032254 53 0 0.0 1.7 0.06 0.10 0.11 61 1014.9
20260505031754 53 0 0.0 2.6 0.04 0.10 0.09 61 1014.9
20260505031512 53 0 0.9 2.6 0.03 0.10 0.09 61 1014.9
20260505030753 53 0 0.9 2.6 0.02 0.10 0.08 61 1014.9
20260505030253 53 0 0.9 1.7 0.02 0.10 0.07 60 1014.9
20260505025754 53 0 0.0 0.0 0.02 0.09 0.06 60 1014.9
20260505025253 53 0 0.0 1.7 0.01 0.09 0.06 60 1014.9
20260505024753 53 0 0.0 2.6 0.01 0.09 0.06 60 1015.0
20260505024253 53 0 0.0 2.6 0.01 0.09 0.06 59 1015.0
20260505023753 53 0 0.9 1.7 0.01 0.09 0.06 59 1015.0
20260505023253 53 0 0.0 2.6 0.01 0.09 0.06 59 1015.1
20260505022752 53 0 0.9 2.6 0.00 0.09 0.06 59 1015.1
20260505022252 53 0 0.0 2.6 0.00 0.09 0.06 58 1015.1
20260505021752 53 0 0.0 2.6 0.00 0.09 0.06 58 1015.0
20260505021252 53 0 0.0 0.9 0.00 0.09 0.06 58 1014.9
20260505020752 53 0 0.0 0.9 0.00 0.09 0.06 58 1014.9
20260505020252 53 0 0.0 1.7 0.00 0.09 0.06 58 1014.9
20260505015752 53 0 0.0 1.7 0.00 0.09 0.06 58 1014.9
20260505015251 53 0 0.9 1.7 0.00 0.09 0.06 58 1014.9
20260505014751 53 0 0.0 2.6 0.00 0.09 0.06 58 1014.9
20260505014252 53 0 0.9 2.6 0.00 0.09 0.06 58 1014.8
20260505013751 53 0 0.9 5.2 0.00 0.09 0.06 58 1014.8
20260505013251 53 0 1.7 5.2 0.00 0.09 0.06 58 1014.8
20260505012751 53 0 1.7 2.6 0.01 0.09 0.06 59 1014.8